Tracking 25710 objects as of 6-Jul-2022
HD Live streaming from Space Station
objects crossing your sky now

FENGYUN 1C DEB

Track FENGYUN 1C DEB now!
10-day predictions


NORAD ID: 33632
Int'l Code: 1999-025DDR
Perigee: 680.4 km
Apogee: 744.8 km
Inclination: 99.1 °
Period: 98.9 minutes
Semi major axis: 7083 km
RCS: 0.0035 m2 (small)
Launch date: May 10, 1999
Source: People's Republic of China (PRC)
Launch site: Taiyaun Space Center, China (TSC)

Note: This is SATELLITE DEBRIS
aabbcc
Your satellite tracking list
Your tracking list is empty




NASA's NSSDC Master Catalog

Two Line Element Set (TLE):
1 33632U 99025DDR 22186.52363883  .00004416  00000-0  99743-3 0  9999
2 33632  99.0624 206.6668 0045445 305.7496  53.9477 14.56200476747760
Source of the keplerian elements: AFSPC